QPF
0.05 0.05 0.03 0.03 0.04 0.04 0.04 0.06 0.05 0.05 0.05 0.04 0.04 0.04 0.04 0.05 0.04 0.03 0.03 0.03 0.04 0.04 0.04 0.04 0.06 0.05 0.05 0.05 0.06 0.05 0.04 0.03 0.05 0.04 0.04 0.05 0.06 0.05 0.04 0.02 0.02 0.01 0.01
0.04 0.04 0.03 0.02 0.03 0.03 0.03 0.04 0.04 0.05 0.04 0.04 0.04 0.03 0.02 0.02 0.03 0.04 0.03 0.03 0.03 0.03 0.04 0.06 0.05 0.05 0.06 0.05 0.06 0.07 0.07 0.05 0.04 0.04 0.04 0.04 0.04 0.04 0.05 0.04 0.03 0.02 0.01
0.04 0.03 0.03 0.02 0.02 0.02 0.02 0.02 0.02 0.04 0.04 0.04 0.03 0.03 0.03 0.03 0.03 0.03 0.03 0.03 0.03 0.04 0.05 0.06 0.05 0.04 0.06 0.05 0.05 0.06 0.07 0.08 0.06 0.05 0.04 0.04 0.04 0.04 0.06 0.06 0.05 0.04 0.03
0.05 0.03 0.03 0.02 0.02 0.02 0.03 0.03 0.03 0.02 0.02 0.02 0.03 0.03 0.03 0.02 0.02 0.03 0.03 0.04 0.04 0.04 0.04 0.04 0.04 0.04 0.05 0.05 0.05 0.06 0.06 0.08 0.09 0.06 0.04 0.04 0.04 0.04 0.05 0.06 0.07 0.06 0.04
0.03 0.03 0.03 0.03 0.03 0.03 0.03 0.03 0.02 0.02 0.02 0.02 0.03 0.02 0.02 0.02 0.02 0.02 0.03 0.04 0.05 0.05 0.04 0.04 0.03 0.04 0.05 0.05 0.05 0.04 0.05 0.07 0.08 0.07 0.06 0.04 0.04 0.05 0.04 0.04 0.05 0.06 0.05
0.03 0.03 0.04 0.04 0.04 0.03 0.03 0.02 0.02 0.02 0.02 0.02 0.03 0.02 0.02 0.01 0.01 0.01 0.02 0.04 0.05 0.05 0.05 0.04 0.03 0.03 0.03 0.04 0.04 0.04 0.05 0.07 0.07 0.08 0.07 0.06 0.05 0.04 0.04 0.04 0.04 0.05 0.05
0.04 0.04 0.04 0.05 0.05 0.04 0.03 0.02 0.02 0.02 0.02 0.03 0.03 0.03 0.03 0.02 0.01 0.01 0.01 0.04 0.04 0.03 0.03 0.04 0.03 0.03 0.03 0.03 0.03 0.04 0.04 0.06 0.07 0.08 0.09 0.08 0.07 0.05 0.04 0.04 0.05 0.05 0.04
0.05 0.05 0.06 0.05 0.05 0.05 0.04 0.03 0.03 0.03 0.03 0.03 0.03 0.03 0.04 0.03 0.02 0.01 0.02 0.03 0.04 0.04 0.03 0.03 0.04 0.03 0.03 0.03 0.03 0.03 0.03 0.04 0.05 0.06 0.07 0.07 0.07 0.07 0.06 0.05 0.05 0.05 0.05
0.05 0.06 0.07 0.06 0.06 0.07 0.06 0.05 0.05 0.04 0.04 0.03 0.03 0.03 0.05 0.05 0.03 0.02 0.02 0.03 0.03 0.03 0.03 0.02 0.02 0.02 0.02 0.02 0.02 0.03 0.02 0.03 0.04 0.04 0.05 0.05 0.06 0.06 0.07 0.07 0.07 0.06 0.05
0.05 0.07 0.08 0.08 0.07 0.07 0.09 0.07 0.05 0.04 0.04 0.03 0.03 0.03 0.04 0.06 0.05 0.03 0.03 0.02 0.03 0.04 0.04 0.03 0.02 0.01 0.01 0.01 0.01 0.02 0.03 0.04 0.04 0.04 0.04 0.04 0.05 0.05 0.05 0.06 0.07 0.07 0.06
0.06 0.08 0.09 0.08 0.08 0.07 0.07 0.06 0.05 0.04 0.03 0.03 0.03 0.03 0.03 0.04 0.04 0.02 0.02 0.02 0.03 0.04 0.04 0.03 0.02 0.02 0.02 0.01 0.02 0.02 0.03 0.03 0.03 0.03 0.03 0.03 0.03 0.04 0.04 0.05 0.05 0.05 0.05
0.05 0.07 0.08 0.09 0.09 0.08 0.08 0.06 0.05 0.04 0.03 0.03 0.03 0.03 0.03 0.03 0.03 0.02 0.01 0.01 0.02 0.04 0.04 0.04 0.03 0.03 0.03 0.03 0.02 0.02 0.02 0.02 0.02 0.02 0.02 0.03 0.03 0.03 0.03 0.04 0.04 0.04 0.03
0.04 0.05 0.07 0.07 0.08 0.07 0.06 0.05 0.05 0.04 0.04 0.04 0.03 0.02 0.03 0.03 0.04 0.03 0.02 0.02 0.02 0.03 0.04 0.03 0.03 0.02 0.02 0.03 0.03 0.03 0.02 0.02 0.02 0.02 0.02 0.03 0.04 0.05 0.05 0.04 0.04 0.04 0.04
0.04 0.04 0.05 0.06 0.06 0.07 0.06 0.05 0.04 0.04 0.04 0.04 0.03 0.02 0.02 0.02 0.03 0.03 0.03 0.03 0.03 0.03 0.02 0.02 0.02 0.02 0.02 0.01 0.02 0.02 0.01 0.01 0.02 0.02 0.02 0.02 0.03 0.05 0.05 0.06 0.06 0.06 0.06
0.03 0.04 0.03 0.03 0.05 0.08 0.07 0.06 0.05 0.05 0.05 0.04 0.03 0.04 0.03 0.02 0.02 0.04 0.04 0.03 0.03 0.03 0.02 0.02 0.02 0.01 0.01 0.02 0.02 0.02 0.02 0.01 0.01 0.01 0.02 0.02 0.03 0.04 0.05 0.06 0.07 0.07 0.07
0.02 0.03 0.05 0.03 0.03 0.05 0.06 0.06 0.07 0.07 0.07 0.06 0.04 0.04 0.04 0.03 0.03 0.04 0.03 0.04 0.03 0.03 0.03 0.02 0.03 0.02 0.02 0.02 0.02 0.03 0.02 0.02 0.02 0.02 0.02 0.02 0.03 0.04 0.04 0.05 0.06 0.07 0.08
0.03 0.04 0.04 0.04 0.03 0.02 0.03 0.03 0.03 0.04 0.05 0.05 0.04 0.03 0.05 0.05 0.03 0.02 0.02 0.02 0.02 0.03 0.02 0.02 0.02 0.02 0.02 0.02 0.02 0.03 0.03 0.03 0.02 0.02 0.02 0.02 0.03 0.03 0.04 0.05 0.06 0.07 0.07
0.03 0.05 0.06 0.05 0.04 0.04 0.03 0.02 0.02 0.02 0.02 0.03 0.03 0.03 0.04 0.05 0.04 0.02 0.01 0.01 0.01 0.02 0.02 0.02 0.02 0.02 0.02 0.02 0.02 0.02 0.02 0.02 0.03 0.04 0.03 0.03 0.03 0.04 0.04 0.05 0.05 0.06 0.07
0.02 0.03 0.05 0.06 0.06 0.06 0.05 0.04 0.03 0.02 0.02 0.02 0.02 0.02 0.03 0.04 0.05 0.03 0.01 0.01 0.01 0.01 0.01 0.02 0.02 0.03 0.02 0.02 0.02 0.02 0.02 0.01 0.02 0.03 0.04 0.04 0.04 0.04 0.04 0.04 0.05 0.05 0.06
0.02 0.02 0.03 0.04 0.05 0.07 0.06 0.05 0.05 0.04 0.04 0.03 0.03 0.02 0.02 0.03 0.04 0.03 0.02 0.01 0.01 0.02 0.02 0.02 0.02 0.02 0.02 0.02 0.02 0.02 0.02 0.02 0.02 0.02 0.03 0.03 0.04 0.04 0.03 0.03 0.03 0.05 0.06
0.02 0.02 0.02 0.03 0.04 0.05 0.06 0.06 0.07 0.07 0.05 0.05 0.05 0.05 0.04 0.03 0.05 0.04 0.03 0.03 0.02 0.03 0.04 0.03 0.03 0.03 0.02 0.02 0.02 0.02 0.02 0.02 0.02 0.02 0.02 0.02 0.03 0.03 0.02 0.02 0.02 0.03 0.04
0.01 0.01 0.01 0.02 0.03 0.03 0.04 0.05 0.06 0.07 0.07 0.06 0.06 0.05 0.05 0.04 0.05 0.07 0.08 0.06 0.04 0.04 0.04 0.04 0.04 0.05 0.04 0.02 0.02 0.02 0.02 0.02 0.02 0.02 0.02 0.02 0.02 0.02 0.02 0.02 0.02 0.02 0.03
0.01 0.00 0.00 0.01 0.01 0.02 0.03 0.04 0.04 0.05 0.06 0.05 0.05 0.05 0.05 0.04 0.05 0.06 0.08 0.08 0.06 0.05 0.04 0.04 0.04 0.04 0.04 0.04 0.03 0.02 0.02 0.03 0.03 0.03 0.03 0.03 0.02 0.02 0.03 0.03 0.03 0.03 0.03
0.01 0.01 0.00 0.00 0.00 0.01 0.02 0.02 0.03 0.03 0.04 0.04 0.04 0.04 0.04 0.05 0.05 0.06 0.06 0.06 0.05 0.04 0.03 0.04 0.04 0.03 0.03 0.04 0.03 0.02 0.02 0.02 0.02 0.02 0.02 0.03 0.03 0.04 0.04 0.04 0.04 0.03 0.03
0.01 0.01 0.00 0.00 0.00 0.01 0.01 0.01 0.01 0.02 0.03 0.03 0.03 0.03 0.04 0.04 0.04 0.04 0.04 0.04 0.03 0.03 0.03 0.02 0.03 0.03 0.03 0.03 0.03 0.03 0.03 0.03 0.02 0.02 0.02 0.02 0.02 0.03 0.04 0.04 0.03 0.03 0.02
0.00 0.00 0.00 0.01 0.00 0.00 0.01 0.02 0.02 0.03 0.03 0.03 0.03 0.03 0.03 0.03 0.03 0.03 0.03 0.03 0.03 0.03 0.03 0.02 0.02 0.02 0.02 0.02 0.03 0.04 0.04 0.03 0.03 0.03 0.03 0.03 0.03 0.03 0.04 0.04 0.04 0.04 0.03
MSLP
1008.63 1009.13 1009.65 1010.21 1010.81 1011.44 1012.11 1012.80 1013.52 1014.24 1014.94 1015.61 1016.21 1016.73 1017.14 1017.43 1017.61 1017.69 1017.71 1017.70 1017.69 1017.73 1017.84 1018.02 1018.28 1018.59 1018.95 1019.31 1019.66 1019.98 1020.26 1020.50 1020.71 1020.91 1021.11 1021.32 1021.55 1021.80 1022.06 1022.32 1022.57 1022.78 1022.96
1008.51 1009.00 1009.53 1010.09 1010.69 1011.31 1011.95 1012.61 1013.27 1013.94 1014.59 1015.21 1015.78 1016.28 1016.70 1017.04 1017.28 1017.45 1017.57 1017.65 1017.74 1017.84 1017.98 1018.18 1018.41 1018.69 1018.99 1019.29 1019.58 1019.85 1020.09 1020.31 1020.52 1020.71 1020.91 1021.12 1021.34 1021.56 1021.79 1022.01 1022.21 1022.38 1022.50
1008.40 1008.91 1009.46 1010.03 1010.62 1011.23 1011.85 1012.47 1013.09 1013.69 1014.28 1014.85 1015.38 1015.86 1016.29 1016.67 1016.98 1017.23 1017.44 1017.62 1017.79 1017.95 1018.13 1018.33 1018.55 1018.78 1019.03 1019.27 1019.51 1019.73 1019.94 1020.14 1020.34 1020.53 1020.73 1020.94 1021.15 1021.36 1021.56 1021.74 1021.89 1022.01 1022.08
1008.25 1008.79 1009.37 1009.97 1010.58 1011.19 1011.79 1012.38 1012.94 1013.50 1014.03 1014.54 1015.03 1015.50 1015.94 1016.34 1016.71 1017.03 1017.33 1017.59 1017.82 1018.04 1018.25 1018.45 1018.65 1018.85 1019.05 1019.24 1019.43 1019.62 1019.81 1019.99 1020.18 1020.38 1020.58 1020.79 1020.99 1021.19 1021.36 1021.50 1021.61 1021.68 1021.71
1007.98 1008.58 1009.20 1009.84 1010.48 1011.10 1011.70 1012.27 1012.81 1013.32 1013.80 1014.27 1014.72 1015.17 1015.61 1016.03 1016.44 1016.82 1017.18 1017.50 1017.79 1018.06 1018.29 1018.50 1018.69 1018.87 1019.04 1019.20 1019.36 1019.52 1019.69 1019.87 1020.05 1020.25 1020.44 1020.65 1020.84 1021.01 1021.17 1021.28 1021.35 1021.39 1021.38
1007.54 1008.19 1008.87 1009.56 1010.24 1010.90 1011.51 1012.08 1012.60 1013.08 1013.54 1013.97 1014.40 1014.83 1015.26 1015.70 1016.13 1016.55 1016.95 1017.32 1017.66 1017.96 1018.22 1018.45 1018.65 1018.83 1018.99 1019.14 1019.29 1019.44 1019.60 1019.77 1019.94 1020.13 1020.32 1020.50 1020.68 1020.83 1020.96 1021.05 1021.10 1021.11 1021.08
1006.90 1007.60 1008.34 1009.08 1009.81 1010.51 1011.15 1011.73 1012.26 1012.74 1013.17 1013.59 1014.00 1014.41 1014.84 1015.28 1015.72 1016.17 1016.60 1017.01 1017.39 1017.73 1018.03 1018.29 1018.51 1018.71 1018.89 1019.05 1019.21 1019.37 1019.53 1019.69 1019.86 1020.03 1020.19 1020.35 1020.50 1020.63 1020.73 1020.81 1020.84 1020.84 1020.81
1006.06 1006.80 1007.58 1008.38 1009.15 1009.89 1010.57 1011.19 1011.73 1012.22 1012.66 1013.07 1013.47 1013.88 1014.30 1014.74 1015.19 1015.65 1016.11 1016.55 1016.96 1017.35 1017.69 1018.00 1018.27 1018.52 1018.74 1018.94 1019.13 1019.30 1019.47 1019.63 1019.78 1019.93 1020.06 1020.18 1020.30 1020.39 1020.47 1020.53 1020.56 1020.57 1020.55
1005.08 1005.84 1006.65 1007.47 1008.29 1009.07 1009.79 1010.44 1011.01 1011.52 1011.98 1012.40 1012.81 1013.22 1013.64 1014.08 1014.54 1015.01 1015.49 1015.96 1016.41 1016.84 1017.24 1017.60 1017.94 1018.25 1018.53 1018.78 1019.01 1019.22 1019.40 1019.56 1019.70 1019.81 1019.91 1019.99 1020.06 1020.12 1020.17 1020.22 1020.26 1020.28 1020.29
1004.07 1004.81 1005.62 1006.46 1007.30 1008.11 1008.86 1009.54 1010.15 1010.69 1011.17 1011.62 1012.04 1012.46 1012.89 1013.34 1013.81 1014.30 1014.79 1015.29 1015.78 1016.25 1016.70 1017.13 1017.53 1017.91 1018.25 1018.57 1018.85 1019.09 1019.29 1019.45 1019.57 1019.66 1019.71 1019.75 1019.78 1019.81 1019.84 1019.88 1019.92 1019.97 1020.01
1003.14 1003.85 1004.63 1005.46 1006.30 1007.11 1007.88 1008.59 1009.23 1009.80 1010.31 1010.78 1011.24 1011.68 1012.13 1012.60 1013.08 1013.58 1014.09 1014.60 1015.12 1015.63 1016.12 1016.60 1017.06 1017.50 1017.90 1018.27 1018.59 1018.86 1019.08 1019.25 1019.36 1019.42 1019.45 1019.46 1019.45 1019.45 1019.47 1019.50 1019.56 1019.63 1019.70
1002.41 1003.06 1003.79 1004.58 1005.39 1006.20 1006.96 1007.68 1008.34 1008.93 1009.48 1009.99 1010.47 1010.95 1011.42 1011.91 1012.41 1012.92 1013.44 1013.97 1014.50 1015.02 1015.54 1016.05 1016.54 1017.01 1017.45 1017.85 1018.21 1018.51 1018.75 1018.92 1019.03 1019.08 1019.09 1019.08 1019.06 1019.04 1019.05 1019.09 1019.15 1019.24 1019.35
1002.00 1002.56 1003.22 1003.94 1004.70 1005.46 1006.21 1006.91 1007.57 1008.19 1008.76 1009.30 1009.82 1010.33 1010.83 1011.34 1011.85 1012.37 1012.90 1013.42 1013.94 1014.46 1014.97 1015.47 1015.96 1016.44 1016.89 1017.30 1017.67 1017.99 1018.24 1018.43 1018.55 1018.61 1018.62 1018.61 1018.59 1018.58 1018.59 1018.63 1018.71 1018.81 1018.94
1001.94 1002.41 1002.98 1003.61 1004.29 1004.99 1005.68 1006.35 1007.00 1007.61 1008.20 1008.76 1009.31 1009.85 1010.38 1010.91 1011.43 1011.95 1012.46 1012.96 1013.45 1013.93 1014.41 1014.87 1015.33 1015.78 1016.20 1016.61 1016.98 1017.30 1017.56 1017.76 1017.91 1017.99 1018.03 1018.04 1018.04 1018.05 1018.07 1018.12 1018.21 1018.32 1018.46
1002.26 1002.63 1003.08 1003.61 1004.18 1004.79 1005.41 1006.02 1006.63 1007.23 1007.82 1008.39 1008.96 1009.51 1010.06 1010.60 1011.12 1011.63 1012.11 1012.57 1013.01 1013.43 1013.83 1014.23 1014.62 1015.01 1015.40 1015.77 1016.12 1016.44 1016.71 1016.94 1017.12 1017.24 1017.33 1017.38 1017.42 1017.45 1017.50 1017.57 1017.66 1017.78 1017.91
1002.90 1003.16 1003.49 1003.89 1004.35 1004.84 1005.37 1005.91 1006.46 1007.02 1007.58 1008.15 1008.71 1009.27 1009.82 1010.36 1010.86 1011.34 1011.78 1012.18 1012.55 1012.89 1013.21 1013.53 1013.84 1014.16 1014.48 1014.81 1015.14 1015.45 1015.74 1015.99 1016.21 1016.39 1016.52 1016.63 1016.72 1016.79 1016.87 1016.96 1017.06 1017.17 1017.29
1003.75 1003.89 1004.10 1004.37 1004.70 1005.07 1005.49 1005.93 1006.41 1006.91 1007.43 1007.97 1008.51 1009.05 1009.59 1010.10 1010.57 1011.01 1011.39 1011.73 1012.02 1012.28 1012.51 1012.74 1012.97 1013.22 1013.49 1013.77 1014.08 1014.38 1014.69 1014.97 1015.23 1015.46 1015.66 1015.82 1015.95 1016.07 1016.18 1016.28 1016.38 1016.49 1016.60
1004.69 1004.72 1004.81 1004.95 1005.15 1005.40 1005.70 1006.04 1006.43 1006.85 1007.31 1007.79 1008.29 1008.80 1009.29 1009.76 1010.19 1010.57 1010.89 1011.16 1011.38 1011.56 1011.72 1011.87 1012.04 1012.23 1012.45 1012.70 1012.99 1013.30 1013.62 1013.93 1014.23 1014.51 1014.75 1014.96 1015.14 1015.29 1015.41 1015.53 1015.64 1015.74 1015.83
1005.62 1005.55 1005.52 1005.55 1005.62 1005.75 1005.94 1006.17 1006.46 1006.79 1007.17 1007.58 1008.02 1008.46 1008.90 1009.30 1009.67 1009.99 1010.25 1010.46 1010.61 1010.73 1010.83 1010.94 1011.06 1011.21 1011.40 1011.64 1011.93 1012.24 1012.58 1012.92 1013.25 1013.55 1013.83 1014.06 1014.27 1014.44 1014.58 1014.70 1014.80 1014.90 1014.99
1006.45 1006.29 1006.17 1006.10 1006.07 1006.09 1006.17 1006.30 1006.49 1006.73 1007.01 1007.34 1007.69 1008.05 1008.41 1008.74 1009.04 1009.28 1009.48 1009.63 1009.74 1009.81 1009.88 1009.96 1010.06 1010.20 1010.39 1010.63 1010.92 1011.25 1011.60 1011.95 1012.29 1012.61 1012.90 1013.14 1013.35 1013.52 1013.67 1013.79 1013.89 1013.99 1014.08
1007.17 1006.95 1006.75 1006.60 1006.48 1006.41 1006.40 1006.44 1006.53 1006.67 1006.86 1007.09 1007.34 1007.61 1007.87 1008.11 1008.33 1008.50 1008.64 1008.73 1008.80 1008.85 1008.90 1008.98 1009.08 1009.24 1009.44 1009.70 1010.00 1010.34 1010.69 1011.05 1011.38 1011.70 1011.97 1012.20 1012.40 1012.56 1012.69 1012.81 1012.91 1013.02 1013.12
1007.80 1007.53 1007.29 1007.08 1006.90 1006.76 1006.67 1006.63 1006.63 1006.68 1006.77 1006.90 1007.05 1007.21 1007.37 1007.51 1007.63 1007.73 1007.80 1007.85 1007.88 1007.91 1007.97 1008.05 1008.17 1008.35 1008.57 1008.85 1009.17 1009.51 1009.86 1010.20 1010.52 1010.81 1011.05 1011.26 1011.43 1011.56 1011.68 1011.79 1011.90 1012.02 1012.14
1008.41 1008.12 1007.85 1007.60 1007.38 1007.19 1007.04 1006.93 1006.86 1006.82 1006.82 1006.84 1006.88 1006.94 1006.98 1007.03 1007.05 1007.06 1007.06 1007.06 1007.06 1007.07 1007.12 1007.21 1007.35 1007.55 1007.80 1008.09 1008.42 1008.75 1009.09 1009.41 1009.70 1009.95 1010.16 1010.33 1010.46 1010.57 1010.68 1010.79 1010.90 1011.04 1011.19
1009.07 1008.77 1008.49 1008.22 1007.97 1007.75 1007.55 1007.39 1007.25 1007.14 1007.05 1006.98 1006.91 1006.86 1006.80 1006.73 1006.66 1006.58 1006.50 1006.43 1006.39 1006.38 1006.41 1006.50 1006.64 1006.85 1007.10 1007.40 1007.72 1008.05 1008.36 1008.66 1008.91 1009.13 1009.30 1009.43 1009.54 1009.63 1009.73 1009.84 1009.97 1010.13 1010.31
1009.83 1009.53 1009.24 1008.97 1008.70 1008.45 1008.22 1008.01 1007.82 1007.64 1007.47 1007.31 1007.16 1007.00 1006.84 1006.67 1006.49 1006.32 1006.15 1006.01 1005.91 1005.85 1005.84 1005.90 1006.03 1006.22 1006.46 1006.75 1007.05 1007.36 1007.66 1007.92 1008.15 1008.34 1008.48 1008.60 1008.69 1008.78 1008.88 1009.00 1009.15 1009.33 1009.55
1010.69 1010.40 1010.11 1009.83 1009.55 1009.28 1009.02 1008.77 1008.53 1008.29 1008.06 1007.83 1007.59 1007.34 1007.08 1006.81 1006.54 1006.27 1006.01 1005.78 1005.60 1005.47 1005.40 1005.41 1005.49 1005.64 1005.85 1006.11 1006.39 1006.67 1006.95 1007.20 1007.41 1007.58 1007.72 1007.83 1007.92 1008.02 1008.13 1008.27 1008.44 1008.64 1008.88
Thickness
5707 5706 5705 5705 5705 5703 5702 5701 5700 5698 5696 5695 5693 5691 5689 5688 5687 5686 5687 5687 5686 5686 5687 5687 5687 5688 5689 5690 5691 5691 5691 5691 5687 5691 5693 5691 5688 5688 5688 5687 5687 5686 5686
5701 5700 5699 5699 5698 5697 5697 5696 5695 5693 5692 5691 5690 5687 5686 5684 5683 5682 5682 5683 5682 5682 5682 5682 5682 5683 5682 5684 5685 5685 5685 5685 5684 5682 5685 5686 5684 5684 5684 5683 5685 5685 5684
5695 5694 5693 5693 5692 5692 5691 5691 5690 5689 5687 5687 5685 5683 5682 5681 5680 5678 5678 5678 5678 5678 5678 5677 5677 5677 5676 5678 5678 5679 5680 5681 5680 5680 5681 5681 5681 5680 5679 5680 5681 5680 5681
5688 5688 5687 5687 5687 5687 5686 5686 5685 5684 5683 5682 5681 5679 5678 5677 5676 5675 5674 5673 5673 5673 5674 5673 5673 5672 5671 5671 5672 5672 5673 5674 5675 5675 5676 5677 5676 5676 5675 5675 5676 5676 5677
5683 5682 5682 5682 5682 5682 5681 5681 5680 5679 5679 5678 5676 5675 5674 5672 5671 5670 5669 5669 5667 5667 5668 5669 5669 5667 5666 5665 5667 5667 5667 5668 5669 5670 5671 5672 5671 5669 5670 5672 5672 5672 5673
5677 5677 5677 5677 5676 5676 5675 5674 5674 5674 5673 5672 5671 5670 5668 5668 5664 5662 5662 5664 5663 5663 5663 5663 5664 5663 5660 5659 5659 5659 5659 5660 5662 5663 5665 5665 5665 5666 5666 5666 5666 5665 5665
5670 5672 5671 5671 5671 5670 5670 5668 5668 5668 5667 5666 5665 5665 5663 5661 5657 5655 5654 5657 5658 5658 5658 5658 5660 5661 5657 5657 5655 5653 5654 5654 5654 5656 5658 5659 5660 5662 5660 5659 5659 5659 5660
5665 5666 5665 5665 5664 5664 5663 5662 5661 5661 5661 5659 5659 5658 5657 5655 5651 5649 5648 5651 5653 5653 5654 5653 5652 5653 5653 5651 5652 5652 5653 5653 5652 5652 5654 5656 5656 5656 5655 5655 5654 5654 5655
5659 5660 5660 5660 5659 5657 5656 5655 5655 5654 5654 5653 5653 5652 5651 5649 5645 5643 5641 5646 5648 5648 5649 5649 5648 5647 5645 5643 5645 5647 5648 5650 5649 5648 5648 5649 5648 5649 5648 5648 5649 5649 5651
5654 5654 5654 5653 5652 5652 5651 5650 5649 5648 5648 5648 5648 5646 5645 5643 5640 5637 5635 5641 5643 5644 5644 5644 5642 5640 5638 5636 5639 5642 5642 5644 5645 5645 5644 5643 5644 5644 5642 5643 5645 5645 5647
5648 5649 5647 5647 5647 5647 5645 5644 5643 5642 5642 5642 5641 5640 5639 5638 5635 5632 5630 5634 5637 5638 5639 5639 5639 5633 5631 5629 5630 5634 5635 5635 5638 5639 5641 5642 5642 5641 5640 5639 5640 5641 5642
5641 5642 5641 5640 5641 5641 5639 5638 5637 5636 5635 5636 5636 5635 5635 5633 5631 5628 5626 5626 5627 5630 5632 5633 5632 5626 5624 5623 5624 5626 5626 5626 5632 5635 5636 5638 5638 5638 5638 5636 5635 5635 5636
5634 5634 5635 5634 5634 5635 5633 5633 5633 5632 5632 5632 5632 5631 5631 5630 5627 5623 5621 5620 5619 5622 5625 5623 5621 5618 5617 5619 5618 5618 5619 5623 5627 5628 5630 5631 5632 5633 5632 5631 5631 5630 5631
5629 5629 5629 5629 5629 5629 5629 5630 5630 5629 5629 5629 5628 5627 5626 5625 5623 5621 5619 5616 5613 5614 5616 5616 5613 5612 5612 5612 5613 5614 5616 5619 5621 5621 5623 5625 5625 5626 5626 5627 5627 5626 5627
5623 5624 5625 5626 5626 5624 5625 5624 5625 5623 5622 5621 5623 5622 5620 5618 5615 5610 5611 5612 5611 5611 5609 5610 5611 5612 5611 5611 5612 5612 5612 5612 5613 5614 5616 5616 5617 5618 5620 5621 5620 5621 5621
5617 5618 5620 5622 5622 5622 5621 5619 5616 5615 5613 5612 5611 5611 5611 5608 5605 5603 5601 5599 5598 5598 5600 5604 5604 5605 5605 5605 5605 5605 5605 5606 5607 5607 5608 5608 5608 5610 5612 5613 5614 5614 5614
5610 5612 5615 5616 5617 5617 5616 5616 5614 5610 5607 5605 5604 5603 5601 5599 5597 5595 5593 5591 5590 5589 5594 5597 5597 5597 5598 5598 5597 5597 5598 5598 5598 5599 5600 5600 5601 5602 5603 5605 5606 5606 5608
5604 5605 5607 5609 5610 5612 5611 5611 5611 5610 5607 5606 5601 5597 5595 5593 5590 5588 5586 5585 5588 5587 5591 5592 5592 5591 5591 5590 5590 5590 5590 5590 5590 5590 5591 5593 5593 5594 5595 5596 5598 5598 5600
5598 5600 5600 5602 5604 5605 5606 5606 5606 5605 5603 5603 5601 5596 5590 5587 5584 5582 5580 5585 5588 5588 5588 5587 5586 5586 5586 5585 5583 5583 5582 5582 5582 5583 5584 5584 5586 5587 5588 5589 5591 5590 5590
5591 5590 5591 5595 5597 5598 5598 5598 5598 5597 5596 5596 5595 5594 5589 5586 5586 5583 5581 5583 5583 5583 5583 5582 5581 5581 5580 5579 5578 5577 5576 5575 5575 5575 5576 5577 5578 5580 5581 5582 5584 5585 5586
5587 5587 5583 5587 5590 5591 5590 5590 5590 5589 5589 5589 5589 5587 5581 5583 5583 5582 5580 5579 5578 5578 5577 5576 5575 5575 5574 5572 5572 5571 5570 5569 5569 5568 5569 5569 5570 5572 5573 5575 5577 5579 5580
5582 5583 5583 5582 5583 5583 5582 5583 5583 5583 5583 5582 5581 5580 5574 5576 5578 5577 5575 5573 5573 5572 5572 5570 5570 5569 5568 5567 5566 5564 5563 5563 5562 5562 5561 5562 5563 5564 5566 5568 5570 5571 5573
5576 5577 5577 5577 5576 5573 5574 5575 5576 5576 5575 5574 5574 5573 5572 5571 5570 5569 5567 5567 5566 5565 5564 5563 5562 5562 5561 5560 5558 5557 5556 5556 5555 5554 5554 5554 5556 5557 5558 5559 5561 5563 5565
5571 5571 5572 5571 5570 5570 5568 5568 5568 5569 5568 5567 5566 5565 5564 5563 5563 5561 5561 5560 5559 5558 5557 5556 5554 5553 5552 5551 5550 5550 5547 5545 5544 5545 5545 5546 5548 5549 5551 5552 5554 5556 5557
5564 5564 5565 5565 5564 5563 5562 5561 5561 5560 5559 5558 5558 5557 5557 5556 5556 5554 5554 5553 5551 5550 5550 5548 5547 5546 5545 5544 5542 5540 5537 5535 5534 5534 5535 5538 5540 5541 5543 5545 5546 5547 5548
5556 5557 5556 5556 5556 5556 5555 5553 5552 5551 5551 5551 5550 5550 5549 5549 5549 5548 5547 5546 5545 5544 5542 5542 5540 5539 5538 5536 5534 5532 5529 5528 5526 5525 5526 5530 5532 5533 5535 5536 5537 5538 5539